Overview Statistics Trail Chart Weather Telemetry Raw packets
 

This is the latest recevied weather packets stored in our database for station/object KSL2-WX. If no packets are shown the sender has not sent any weather packets the latest 10 day(s).

<< 2 3 4 5 6 7 8 >>
Time Temp. Humidity Pressure Rain* Wind** Luminosity Snow
1788326239 18.33° C 62% 1018.6 hPa - - - -
1788322639 13.89° C 82% 1019.2 hPa - - - -
1788319048 10.56° C 92% 1019.3 hPa - - - -
1788315439 10° C 93% 1019.2 hPa - - - -
1788311839 10° C 94% 1019.2 hPa - - - -
1788308240 10.56° C 95% 1019.1 hPa - - - -
1788304638 10.56° C 96% 1019.1 hPa - - - -
1788301039 11.11° C 94% 1018.6 hPa - - - -
1788297439 12.22° C 91% 1018.3 hPa - - - -
1788293840 13.33° C 87% 1018.2 hPa - - - -
1788290368 14.44° C 84% 1018.2 hPa - - - -
1788286639 15° C 81% 1018.6 hPa - - - -
1788283039 16.11° C 79% 1018.1 hPa - - - -
1788279439 17.22° C 72% 1017.5 hPa - - - -
1788275839 18.33° C 67% 1017.2 hPa - - - -
1788272242 18.89° C 63% 1017.2 hPa - - - -
1788268639 20° C 58% 1017.1 hPa - - - -
1788265039 21.11° C 54% 1016.7 hPa - - - -
1788261439 22.22° C 54% 1016.1 hPa - - - -
1788257838 21.67° C 52% 1016.4 hPa - - - -
1788254239 21.11° C 55% 1016.1 hPa - - - -
1788250640 20.56° C 56% 1016.2 hPa - - - -
1788247039 20° C 59% 1016.5 hPa - - - -
1788243439 18.89° C 64% 1017.1 hPa - - - -
1788239839 17.22° C 70% 1017.1 hPa - - - -

* Rain since midnight (hover to see other rain measurements)
** Current wind speed in m/s (hover to see current wind gust speed)